Volver al catálogo

STARLINK-31049

ActivoComunicacionesVLEO
NORAD 58543·PAYLOAD·🇺🇸 United States

Lanzado Dec 8, 2023 desde Vandenberg Space Force Base

Loading…

Próximos Pases (próximas 24 horas)

TLE

ActualizadoSource: CelesTrak SupGP

Época: Sep 14, 2026, 20:56 UTC

1 58543C 23192N   26257.87270833  .00046741  00000+0  13812-2 0  2577
2 58543  53.1570 259.9274 0001273  98.0658  45.3945 15.34361792    17

Sigue STARLINK-31049 en tiempo real con AllMySat

Download on the App Store